Probability
0 0 0 0 0 0 0 0 0 0 0 19 35 61 65 74 87 90 94 94 84 71 48 42 35 32 26 29 39 35 42 45 55 32 23 23 3 16 26 39 39 29 39 45
0 0 0 0 0 0 0 0 0 3 6 10 29 45 65 77 77 81 77 74 65 52 35 19 26 13 3 6 10 32 29 29 32 45 52 39 16 6 3 13 10 10 10 13
0 0 0 0 0 0 0 0 0 0 0 6 16 26 42 52 52 55 58 48 45 19 16 3 3 0 0 0 3 0 16 29 45 29 13 6 6 3 6 3 3 0 0 3
0 0 0 0 0 0 0 0 0 0 0 3 0 6 39 52 39 29 29 16 6 6 6 3 0 0 0 0 0 6 16 23 16 10 6 0 0 0 0 3 0 0 0 0
0 0 0 0 0 0 0 0 0 0 0 0 0 0 26 39 35 23 16 13 6 3 0 0 0 0 0 0 0 3 6 3 3 3 0 0 0 0 0 0 0 0 0 0
0 0 0 0 0 0 0 0 0 0 0 0 0 0 23 42 39 23 3 3 3 0 0 0 0 0 0 0 0 0 0 0 0 0 0 0 0 0 0 0 0 0 0 0
0 0 0 0 0 0 0 0 0 0 0 0 0 0 29 35 35 10 0 6 3 0 0 0 0 0 0 0 0 0 0 0 0 0 0 0 0 0 0 0 0 0 0 0
0 0 0 0 0 0 0 0 0 0 0 0 0 3 52 19 3 0 0 0 0 0 0 0 0 0 0 0 0 0 0 0 0 0 0 0 0 0 0 0 0 0 0 0
0 0 0 0 0 0 0 0 0 0 0 0 0 39 3 0 0 0 0 0 0 0 0 0 0 0 0 0 0 0 0 0 0 0 0 0 0 0 0 0 0 0 0 0
0 0 0 0 0 0 0 0 0 0 0 0 0 13 35 0 0 0 0 0 0 0 0 0 0 0 0 0 0 0 0 0 0 0 0 0 0 0 0 0 0 0 0 0
0 0 0 0 0 0 0 0 0 0 0 0 0 0 0 0 0 0 0 0 0 0 0 0 0 0 0 0 0 0 0 0 0 0 0 0 0 0 0 0 0 0 0 0
0 0 0 0 0 0 0 0 0 0 0 0 0 0 0 0 0 0 0 0 0 0 0 0 0 0 0 0 0 0 0 0 0 0 0 0 0 0 0 0 0 0 0 0
0 0 0 0 0 0 0 0 0 0 0 0 0 0 0 0 0 0 0 0 0 0 0 0 0 0 0 0 0 0 0 0 0 0 0 0 0 0 0 0 0 0 0 0
0 0 0 0 0 0 0 0 0 0 0 0 0 0 0 0 0 0 0 0 0 0 0 0 0 0 0 0 0 0 0 0 0 0 0 0 0 0 0 0 0 0 0 0
0 0 0 0 0 0 0 0 0 0 0 0 0 0 0 0 0 0 0 0 0 0 0 0 0 0 0 0 0 0 0 0 0 0 0 0 0 0 0 0 0 0 0 0
0 0 0 0 0 0 0 0 0 0 0 0 0 0 0 0 0 0 0 0 0 0 0 0 0 0 0 0 0 0 0 0 0 0 0 0 0 0 0 0 0 0 0 0
0 6 0 0 0 0 0 0 0 0 0 0 0 0 0 0 0 0 0 0 0 0 0 0 0 0 0 0 0 0 0 0 0 0 0 0 0 0 0 0 0 0 0 0
0 0 35 0 0 0 0 0 0 0 0 0 0 0 0 0 0 0 0 0 0 0 0 0 0 0 0 0 0 0 0 0 0 0 0 0 0 0 0 0 0 0 0 0
0 0 0 0 0 0 0 0 0 0 0 0 0 0 0 0 0 0 0 0 0 0 0 0 0 0 0 0 0 0 0 0 0 0 0 0 0 0 0 0 0 0 0 0
0 0 0 0 0 0 0 0 0 0 0 0 0 0 0 0 0 0 0 0 0 0 0 0 0 0 0 0 0 0 0 0 0 0 0 0 0 0 0 0 0 0 0 0
0 0 0 0 0 0 0 0 0 0 0 0 0 0 0 0 0 0 0 0 0 0 0 0 0 0 0 0 0 0 0 0 0 0 0 0 0 0 0 0 0 0 0 0
0 0 0 0 0 0 0 0 0 0 0 0 0 0 0 0 0 0 0 0 0 0 0 0 0 0 0 0 0 0 0 0 0 0 0 0 0 0 0 0 0 0 0 0
0 0 0 0 0 0 0 0 0 0 0 0 0 0 0 0 0 0 0 0 0 0 0 0 0 0 0 0 0 0 0 0 0 0 0 0 0 0 0 0 0 0 0 0
0 0 0 0 0 0 0 0 0 0 0 0 0 0 0 0 0 0 0 0 0 0 0 0 0 0 0 0 0 0 0 0 0 0 0 0 0 0 0 0 0 0 0 0
0 0 0 0 0 0 0 0 0 0 0 0 0 0 0 0 0 0 0 0 0 0 0 0 0 0 0 0 0 0 0 0 0 0 0 0 0 0 0 0 0 0 0 0
0 0 0 0 0 0 0 0 0 0 0 0 0 0 0 0 0 0 0 0 0 0 0 0 0 0 0 0 0 0 0 0 0 0 0 0 0 0 0 0 0 0 0 0
Height
5868 5870 5868 5866 5868 5869 5870 5871 5868 5867 5868 5868 5867 5866 5864 5863 5861 5861 5860 5860 5859 5858 5857 5855 5853 5852 5850 5848 5845 5842 5840 5837 5833 5829 5826 5823 5820 5817 5813 5811 5809 5807 5806 5804
5871 5869 5867 5867 5869 5870 5873 5874 5873 5869 5868 5867 5863 5862 5860 5858 5858 5857 5856 5856 5855 5854 5852 5850 5848 5846 5844 5841 5838 5835 5832 5829 5825 5821 5817 5814 5811 5808 5805 5802 5800 5798 5797 5795
5870 5869 5868 5868 5869 5870 5870 5870 5869 5868 5866 5862 5860 5857 5855 5855 5855 5854 5853 5851 5850 5849 5847 5845 5842 5839 5836 5833 5830 5827 5824 5820 5816 5812 5808 5805 5802 5799 5795 5792 5790 5788 5787 5785
5867 5868 5867 5868 5868 5868 5868 5868 5868 5866 5863 5860 5859 5852 5850 5851 5850 5850 5850 5848 5847 5845 5842 5840 5836 5833 5829 5825 5821 5817 5814 5811 5807 5803 5798 5795 5791 5788 5785 5781 5778 5776 5775 5773
5868 5869 5868 5868 5868 5868 5867 5866 5865 5862 5859 5856 5851 5844 5842 5846 5845 5847 5847 5845 5843 5840 5837 5834 5830 5826 5822 5818 5813 5809 5805 5802 5798 5793 5788 5784 5780 5776 5772 5769 5766 5763 5762 5760
5867 5869 5870 5870 5868 5866 5865 5865 5863 5859 5855 5851 5848 5846 5846 5847 5845 5845 5844 5841 5839 5835 5832 5828 5824 5820 5816 5811 5807 5802 5797 5793 5789 5784 5779 5774 5770 5765 5761 5757 5754 5751 5749 5747
5864 5864 5867 5869 5867 5864 5864 5863 5861 5856 5850 5847 5847 5845 5846 5847 5845 5843 5841 5838 5835 5831 5827 5822 5818 5813 5809 5805 5800 5795 5790 5785 5779 5774 5769 5764 5759 5755 5750 5746 5743 5740 5738 5736
5864 5861 5864 5866 5866 5863 5863 5863 5861 5858 5856 5851 5846 5840 5844 5846 5846 5843 5840 5836 5832 5828 5823 5818 5813 5808 5803 5797 5792 5787 5782 5777 5771 5765 5760 5755 5750 5745 5741 5737 5733 5730 5728 5726
5870 5868 5866 5865 5864 5862 5861 5860 5860 5859 5858 5856 5850 5846 5847 5846 5844 5842 5838 5834 5830 5824 5819 5813 5808 5802 5796 5791 5785 5780 5774 5769 5763 5757 5751 5746 5741 5736 5731 5727 5723 5720 5718 5715
5869 5869 5867 5865 5863 5861 5860 5858 5857 5857 5856 5856 5855 5849 5848 5845 5843 5840 5836 5831 5826 5821 5815 5809 5802 5796 5791 5784 5778 5773 5767 5761 5755 5749 5743 5736 5731 5726 5721 5717 5713 5710 5707 5704
5868 5868 5866 5865 5863 5861 5859 5858 5856 5855 5854 5855 5855 5851 5847 5844 5841 5838 5833 5828 5823 5816 5810 5804 5797 5791 5784 5778 5771 5765 5758 5752 5746 5739 5732 5726 5720 5715 5709 5705 5701 5697 5694 5691
5867 5867 5865 5862 5860 5859 5858 5857 5856 5855 5854 5853 5854 5851 5845 5841 5838 5834 5830 5824 5818 5812 5805 5798 5791 5785 5778 5770 5763 5756 5749 5742 5735 5728 5722 5715 5709 5703 5698 5694 5689 5685 5680 5676
5866 5865 5865 5862 5859 5858 5859 5856 5854 5853 5852 5852 5852 5849 5841 5838 5834 5830 5825 5820 5813 5807 5800 5793 5785 5778 5770 5763 5755 5747 5739 5732 5725 5718 5711 5704 5698 5692 5687 5682 5676 5671 5666 5661
5863 5863 5864 5864 5861 5859 5858 5857 5854 5851 5850 5848 5847 5844 5840 5835 5832 5827 5821 5815 5809 5801 5794 5786 5778 5771 5763 5755 5747 5739 5731 5723 5716 5708 5701 5694 5687 5681 5675 5669 5663 5657 5650 5644
5861 5861 5860 5859 5859 5857 5855 5854 5851 5848 5846 5844 5842 5839 5835 5831 5827 5822 5817 5810 5803 5796 5788 5780 5772 5763 5755 5747 5739 5730 5722 5714 5707 5699 5691 5683 5676 5669 5663 5656 5649 5642 5634 5627
5857 5857 5856 5855 5855 5854 5853 5851 5848 5845 5842 5840 5838 5835 5831 5827 5822 5817 5812 5805 5798 5790 5782 5773 5764 5756 5747 5739 5730 5722 5713 5705 5696 5688 5680 5672 5665 5658 5651 5643 5636 5628 5619 5611
5855 5854 5853 5852 5851 5851 5850 5848 5845 5841 5839 5836 5833 5831 5826 5822 5817 5813 5808 5801 5793 5785 5775 5766 5757 5748 5740 5731 5722 5713 5704 5695 5687 5678 5670 5662 5654 5647 5639 5631 5623 5614 5605 5596
5854 5853 5851 5849 5848 5847 5848 5843 5841 5838 5835 5832 5829 5825 5821 5817 5811 5806 5802 5794 5786 5777 5768 5759 5750 5742 5733 5723 5714 5705 5696 5687 5678 5669 5660 5652 5644 5636 5628 5620 5611 5601 5591 5582
5851 5850 5848 5846 5845 5844 5843 5839 5836 5834 5831 5828 5824 5821 5817 5812 5807 5799 5794 5786 5778 5770 5762 5754 5744 5735 5726 5717 5708 5698 5688 5679 5669 5660 5651 5643 5635 5627 5618 5609 5600 5589 5580 5570
5849 5847 5845 5843 5841 5839 5839 5835 5832 5830 5825 5823 5819 5815 5811 5806 5803 5797 5789 5782 5774 5766 5757 5748 5739 5729 5720 5711 5701 5691 5681 5672 5662 5652 5643 5635 5626 5618 5609 5600 5590 5580 5569 5560
5845 5842 5840 5839 5837 5836 5832 5830 5829 5826 5822 5817 5813 5809 5805 5801 5797 5791 5784 5777 5769 5760 5751 5742 5733 5724 5714 5705 5695 5685 5675 5665 5655 5645 5636 5627 5619 5610 5601 5591 5581 5571 5561 5552
5843 5841 5838 5836 5834 5833 5826 5825 5823 5821 5816 5812 5808 5805 5800 5796 5790 5784 5777 5770 5762 5754 5745 5737 5728 5719 5709 5699 5689 5680 5669 5659 5649 5639 5629 5621 5612 5603 5593 5584 5574 5564 5555 5545
5838 5837 5833 5832 5831 5826 5822 5819 5817 5814 5811 5807 5803 5799 5794 5789 5784 5778 5771 5764 5756 5748 5740 5731 5722 5713 5704 5694 5684 5674 5663 5653 5643 5632 5623 5614 5606 5596 5586 5577 5567 5558 5549 5540
5834 5830 5827 5825 5824 5820 5816 5813 5811 5807 5804 5801 5797 5793 5788 5783 5777 5771 5765 5758 5750 5742 5734 5726 5717 5708 5699 5689 5678 5668 5658 5647 5637 5627 5618 5609 5600 5591 5581 5572 5562 5554 5545 5537
5828 5825 5822 5819 5817 5813 5810 5807 5805 5802 5798 5795 5791 5787 5782 5777 5771 5765 5758 5751 5744 5736 5728 5720 5711 5702 5693 5683 5673 5663 5653 5642 5632 5622 5613 5604 5595 5586 5577 5567 5559 5550 5543 5535
5821 5819 5817 5814 5811 5807 5805 5801 5798 5795 5792 5789 5785 5780 5775 5770 5764 5758 5751 5745 5738 5730 5723 5714 5706 5697 5688 5678 5669 5659 5648 5638 5628 5618 5609 5600 5592 5582 5573 5564 5556 5548 5541 5534
Wind_Speed
6 5 10 11 5 6 11 12 16 14 13 14 20 22 22 22 21 21 20 20 20 21 22 24 25 27 28 30 31 33 34 35 36 37 38 38 38 39 40 39 38 38 38 39
7 13 9 7 10 10 10 9 13 19 23 18 16 19 17 15 17 18 18 19 21 21 23 24 26 27 29 31 32 34 35 37 38 39 39 39 39 40 41 41 40 40 39 40
8 11 10 9 11 9 10 11 12 17 20 16 15 17 12 10 12 14 16 18 20 21 23 25 28 29 31 33 35 35 36 37 38 39 41 41 41 42 43 43 43 42 41 42
5 4 8 7 6 7 11 12 9 11 16 18 20 21 13 12 11 12 16 19 22 24 26 28 30 32 34 35 36 37 37 38 39 41 43 43 44 44 45 46 46 45 44 44
5 5 2 3 3 6 8 7 10 13 17 23 24 22 10 14 15 17 21 23 25 27 29 30 31 32 33 35 37 38 39 40 41 42 44 45 46 47 48 49 49 49 48 47
3 2 4 3 4 5 3 8 15 18 19 20 15 11 11 20 24 25 26 27 27 28 30 30 31 32 33 35 37 39 40 41 41 43 44 46 47 47 48 49 49 49 47 46
4 5 1 5 10 11 4 10 17 22 24 17 12 7 8 19 25 27 29 29 28 29 29 30 32 33 34 35 36 37 39 40 41 42 43 44 45 45 46 46 45 45 43 42
15 12 6 7 11 12 9 9 14 15 19 18 18 11 13 19 22 23 25 26 27 29 30 31 32 33 33 33 34 36 37 39 40 41 42 43 43 44 44 43 43 42 42 41
9 13 13 14 13 11 8 8 10 8 9 12 18 19 20 20 21 22 24 26 28 30 31 31 32 32 33 34 35 36 38 39 40 41 42 42 43 42 42 41 41 41 42 42
8 6 8 14 13 12 11 10 8 4 7 5 11 19 20 20 22 24 26 28 30 31 32 33 33 33 34 36 37 38 39 40 40 41 42 42 42 41 41 41 41 41 43 44
9 7 7 8 12 12 11 10 8 6 6 5 7 20 20 22 23 24 26 29 30 32 33 33 34 35 36 37 39 40 41 41 41 42 42 42 42 42 41 42 42 43 44 45
10 7 6 10 11 7 10 11 10 8 7 6 7 21 22 23 24 26 27 29 31 33 34 35 36 36 37 38 40 41 42 43 43 43 43 44 43 42 42 42 43 44 45 47
11 9 8 15 13 9 9 14 13 11 8 8 8 20 25 26 27 28 30 32 33 35 36 37 38 38 39 40 41 43 43 44 44 45 45 45 44 42 42 43 44 45 46 48
12 11 8 8 12 12 12 13 14 14 11 12 15 20 24 25 26 27 29 32 34 37 39 40 40 40 41 41 43 43 44 44 45 45 45 45 43 42 43 44 45 46 48 49
12 10 10 11 11 13 14 15 15 16 16 16 18 21 24 25 27 28 30 33 36 39 40 42 42 42 42 43 44 44 44 44 45 45 45 45 43 43 43 44 46 47 48 49
14 12 12 11 10 13 14 16 18 19 19 19 19 21 25 26 28 29 31 35 38 40 41 43 43 43 44 45 45 45 45 46 47 47 46 45 44 43 43 45 46 48 49 50
14 14 12 11 10 12 15 17 19 22 21 21 22 23 25 26 28 30 31 35 39 41 42 44 45 45 46 46 47 47 47 48 48 48 47 45 44 43 44 46 47 48 49 49
14 14 14 12 10 9 15 19 20 21 21 21 23 25 26 28 31 33 34 37 41 43 44 45 46 46 47 47 48 48 49 50 50 49 47 45 44 43 45 46 48 49 48 47
19 17 16 15 12 10 15 22 19 20 21 20 22 24 26 28 31 36 38 41 44 45 45 45 46 47 47 48 48 49 50 50 50 49 47 44 43 43 44 46 47 47 46 45
22 20 19 17 16 14 14 19 20 22 25 22 24 25 28 29 31 34 38 40 43 44 44 44 45 47 48 49 50 51 51 51 50 48 45 43 43 43 44 46 46 45 44 43
23 23 21 22 20 18 21 20 22 24 26 26 27 28 29 31 32 34 37 40 42 44 44 44 46 47 49 50 50 51 51 51 50 47 44 42 43 43 44 44 44 43 42 41
19 19 21 22 21 22 26 25 25 25 25 26 27 28 30 31 33 35 38 41 43 44 44 44 45 47 49 50 51 51 51 50 49 46 43 42 42 43 43 43 42 40 39 38
20 22 23 21 23 27 29 27 27 26 26 26 27 29 30 32 34 36 39 41 43 44 43 44 45 47 49 50 51 51 51 50 48 45 43 41 42 42 42 41 40 39 37 37
21 25 25 22 20 25 27 27 27 27 27 27 29 30 31 33 36 38 40 41 43 44 43 43 45 46 48 50 51 51 51 50 48 44 42 41 41 41 41 40 38 36 35 35
22 23 25 24 23 24 25 26 27 27 27 28 30 31 33 35 37 39 41 42 43 43 43 44 45 47 48 50 51 51 51 49 47 44 41 41 41 40 39 38 36 34 33 32
25 25 25 25 25 26 26 26 27 27 27 29 30 32 34 37 39 40 41 42 42 43 43 44 46 47 48 49 50 51 50 49 47 43 41 40 40 40 38 36 34 33 31 30
Wind_Direction
23 340 289 275 243 290 306 318 318 306 286 282 290 290 289 288 289 290 288 286 285 284 284 284 285 285 285 286 287 288 290 291 293 294 295 294 294 294 293 293 292 292 291 291
308 286 278 310 303 288 273 271 272 276 282 283 288 291 289 291 297 297 295 292 290 289 288 288 289 290 290 291 291 292 293 294 295 295 295 295 294 294 293 293 293 291 291 290
288 305 309 284 275 270 259 245 263 288 299 300 291 278 281 302 302 306 305 302 299 297 296 296 296 297 296 296 296 296 297 298 298 297 296 296 295 294 293 293 292 290 289 288
266 278 290 282 277 276 279 244 261 294 298 292 289 275 274 300 302 311 311 308 308 307 305 304 303 302 303 303 303 303 303 302 301 300 299 299 298 297 296 294 293 292 290 287
26 357 8 1 312 289 300 296 278 268 259 260 267 273 297 336 330 325 323 318 316 314 312 310 308 308 307 307 306 306 306 305 304 303 302 302 301 300 299 297 296 295 293 289
129 12 351 331 296 272 283 303 296 294 289 274 288 317 344 343 335 331 328 325 323 321 318 316 314 311 310 308 307 307 307 307 306 304 303 303 302 300 299 297 296 295 293 290
181 190 158 325 306 299 336 326 319 332 343 352 352 333 348 338 334 332 331 332 332 329 326 322 318 315 312 310 309 308 308 308 307 306 306 304 303 301 300 298 295 293 291 289
349 346 11 330 314 318 338 326 321 336 339 342 334 331 344 337 333 332 332 333 334 332 329 325 321 318 316 314 313 312 312 312 311 310 308 306 304 302 300 297 294 291 289 287
343 343 341 331 321 316 309 293 301 326 338 346 336 327 333 337 335 336 336 335 334 333 331 328 326 323 322 319 318 316 315 314 313 312 310 307 305 302 299 296 293 290 287 285
320 327 315 331 342 327 323 315 312 329 332 350 332 312 323 332 334 335 334 332 333 333 332 331 329 327 324 322 320 318 317 316 314 312 310 308 306 303 299 296 294 291 288 286
324 326 314 321 322 323 318 315 316 305 294 308 323 302 320 323 329 332 332 332 333 333 333 332 330 328 325 323 320 318 317 316 315 314 312 311 308 305 302 299 297 295 292 290
322 323 302 287 292 317 322 319 319 320 323 333 333 302 312 321 327 330 331 332 333 334 334 333 331 329 326 323 322 320 319 318 317 316 314 313 310 306 303 301 299 297 295 293
320 319 321 320 324 348 339 324 320 313 321 317 306 295 309 318 324 327 330 332 334 335 335 333 332 330 327 325 323 321 320 319 318 317 316 314 311 307 305 303 302 300 298 295
311 312 306 299 310 309 301 305 305 304 303 294 289 292 303 314 320 323 327 331 334 336 336 335 333 331 329 327 325 323 321 320 319 318 317 315 312 309 307 306 305 304 302 299
305 299 291 292 292 292 297 300 299 300 303 303 302 305 308 317 320 324 329 332 335 337 337 336 334 332 331 329 327 325 323 322 321 320 319 316 314 311 310 310 310 309 306 305
309 299 292 293 296 294 301 308 303 303 307 308 308 309 312 318 320 325 330 332 335 335 336 337 336 335 333 331 330 328 326 325 324 323 321 319 316 314 314 314 314 313 311 309
306 309 305 296 281 291 303 300 295 303 309 310 312 313 315 317 319 324 330 331 334 336 338 339 338 337 335 333 332 331 329 328 327 325 324 321 319 317 317 317 318 316 315 313
316 313 311 306 297 303 302 297 302 307 308 311 313 315 317 319 321 325 331 332 337 340 340 340 338 336 336 335 334 332 331 330 329 327 325 323 321 320 320 320 321 320 319 317
317 318 315 311 305 299 292 300 307 311 311 314 313 313 315 319 322 325 333 335 338 339 339 339 338 337 337 336 335 334 332 331 330 329 327 325 323 323 323 323 323 323 322 321
305 309 311 312 312 310 301 296 312 313 311 318 314 315 318 320 322 326 331 333 336 337 337 338 338 338 338 338 337 335 334 333 332 330 328 326 326 326 326 326 326 325 325 325
298 309 312 311 313 311 298 306 308 308 311 316 315 318 318 318 322 325 329 332 335 337 337 337 338 338 338 338 338 336 335 335 334 332 330 329 329 329 328 328 328 328 328 328
299 297 294 298 299 290 294 302 303 304 307 309 311 313 314 317 321 326 330 333 335 336 336 337 338 338 338 339 338 338 337 337 336 334 333 332 332 331 331 331 331 331 331 331
295 296 298 298 291 289 295 298 300 301 304 307 309 312 315 318 322 326 330 333 335 336 336 336 337 338 338 339 339 339 339 339 338 337 335 335 334 334 334 335 335 334 335 335
292 295 304 309 300 291 295 296 298 301 304 306 309 312 314 318 321 325 329 331 334 335 335 335 336 337 338 339 339 340 340 340 340 339 337 337 337 337 337 338 338 338 338 340
296 297 303 308 305 300 299 298 299 301 303 306 309 312 315 317 321 324 328 330 332 333 334 334 335 336 337 339 339 340 341 342 342 341 340 340 340 340 340 341 341 341 342 344
296 298 302 304 304 303 304 302 302 303 305 307 309 312 315 317 320 323 326 328 330 331 333 334 335 336 337 338 339 340 342 343 344 343 342 342 343 344 344 344 343 344 345 347